Volver al catálogo

STARLINK-32358

ActivoComunicacionesVLEO
NORAD 61531·PAYLOAD·🇺🇸 United States

Lanzado Oct 15, 2024 desde Cape Canaveral Space Force Station

Loading…

Próximos Pases (próximas 24 horas)

TLE

ActualizadoSource: CelesTrak SupGP

Época: Sep 14, 2026, 21:12 UTC

1 61531C 24183Y   26257.88381944 -.00015727  00000+0 -46507-3 0  2576
2 61531  53.1588 334.2116 0001346  77.4104 217.0640 15.34370203    14

Sigue STARLINK-32358 en tiempo real con AllMySat

Download on the App Store